When you browse on this site, cookies collect data to enhance your experience and personalize the content and advertising you see.
Visit our Privacy Policy to learn more. By continuing to use the site, you agree to this use of cookies and data.
  • In Sweden
  • List of Countries
  • For 7 days
  • Water Temperature
  • Weather Map
  • Weather Widgets
  • user-avatar
    Login

    Hourly Weather Ogdemer

    Today, 17 February, Monday

    Time Temperature Precipitation Wind Pressure Humidity
    00:00 +2°C° 0 mm 8 mps 749 mmHg 69%
    01:00 +2°C° 0 mm 8 mps 748 mmHg 67%
    02:00 +2°C° 0 mm 8 mps 747 mmHg 67%
    03:00 +3°C° 0 mm 7 mps 747 mmHg 65%
    04:00 +3°C° 0 mm 7 mps 747 mmHg 63%
    05:00 +4°C° 0 mm 7 mps 746 mmHg 61%
    06:00 +4°C° 0 mm 7 mps 746 mmHg 62%
    07:00 +4°C° 0 mm 7 mps 747 mmHg 62%
    08:00 +4°C° 0 mm 7 mps 747 mmHg 63%
    09:00 +5°C° 0 mm 7 mps 747 mmHg 61%
    10:00 +6°C° 0 mm 7 mps 747 mmHg 59%
    11:00 +8°C° 0 mm 7 mps 747 mmHg 58%
    12:00 +9°C° 0 mm 7 mps 747 mmHg 57%
    13:00 +9°C° 0 mm 6 mps 748 mmHg 56%
    14:00 +10°C° 0 mm 6 mps 748 mmHg 56%
    15:00 +9°C° 0 mm 6 mps 748 mmHg 59%
    16:00 +9°C° 0 mm 5 mps 748 mmHg 62%
    17:00 +8°C° 0 mm 5 mps 748 mmHg 65%
    18:00 +8°C° 0 mm 4 mps 748 mmHg 68%
    19:00 +7°C° 0 mm 4 mps 748 mmHg 70%
    20:00 +8°C° 0 mm 3 mps 749 mmHg 73%
    21:00 +8°C° 0.1 mm 3 mps 748 mmHg 76%
    22:00 +7°C° 0.1 mm 3 mps 748 mmHg 79%
    23:00 +7°C° 0.1 mm 3 mps 748 mmHg 82%

    Tomorrow, 18 February, Tuesday

    Time Temperature Precipitation Wind Pressure Humidity
    00:00 +7°C° 0.6 mm 3 mps 748 mmHg 85%
    01:00 +7°C° 0.6 mm 3 mps 748 mmHg 89%
    02:00 +6°C° 0.6 mm 2 mps 748 mmHg 93%
    03:00 +5°C° 0.3 mm 3 mps 747 mmHg 92%
    04:00 +5°C° 0.3 mm 4 mps 747 mmHg 92%
    05:00 +5°C° 0.3 mm 4 mps 746 mmHg 92%
    06:00 +5°C° 0.6 mm 4 mps 746 mmHg 92%
    07:00 +5°C° 0.6 mm 5 mps 747 mmHg 92%
    08:00 +6°C° 0.6 mm 5 mps 747 mmHg 92%
    09:00 +6°C° 0.1 mm 5 mps 747 mmHg 86%
    10:00 +5°C° 0.1 mm 6 mps 747 mmHg 80%
    11:00 +7°C° 0.1 mm 6 mps 747 mmHg 75%
    12:00 +6°C° 0 mm 7 mps 747 mmHg 71%
    13:00 +6°C° 0 mm 7 mps 747 mmHg 67%
    14:00 +6°C° 0 mm 8 mps 748 mmHg 63%
    15:00 +6°C° 0 mm 7 mps 748 mmHg 64%
    16:00 +5°C° 0 mm 7 mps 748 mmHg 65%
    17:00 +5°C° 0 mm 6 mps 748 mmHg 66%
    18:00 +4°C° 0 mm 6 mps 748 mmHg 70%
    19:00 +3°C° 0 mm 5 mps 748 mmHg 74%
    20:00 +3°C° 0 mm 5 mps 749 mmHg 77%
    21:00 +2°C° 0 mm 5 mps 749 mmHg 76%
    22:00 +2°C° 0 mm 5 mps 749 mmHg 76%
    23:00 +2°C° 0 mm 5 mps 749 mmHg 75%

    Day after tomorrow, 19 February, Wednesday

    Time Temperature Precipitation Wind Pressure Humidity
    00:00 +1°C° 0 mm 5 mps 750 mmHg 76%
    01:00 +1°C° 0 mm 5 mps 750 mmHg 76%
    02:00 0°C° 0 mm 5 mps 750 mmHg 77%
    03:00 0°C° 0 mm 5 mps 750 mmHg 80%
    04:00 -1°C° 0 mm 4 mps 750 mmHg 83%
    05:00 -1°C° 0 mm 4 mps 750 mmHg 86%
    06:00 -1°C° 0 mm 4 mps 750 mmHg 86%
    07:00 -1°C° 0 mm 4 mps 749 mmHg 86%
    08:00 -2°C° 0 mm 4 mps 749 mmHg 85%
    09:00 0°C° 0 mm 4 mps 749 mmHg 79%
    10:00 +1°C° 0 mm 5 mps 749 mmHg 73%
    11:00 +2°C° 0 mm 5 mps 749 mmHg 67%
    12:00 +3°C° 0 mm 5 mps 748 mmHg 63%
    13:00 +5°C° 0 mm 5 mps 748 mmHg 60%
    14:00 +4°C° 0 mm 6 mps 748 mmHg 56%
    15:00 +5°C° 0 mm 5 mps 747 mmHg 59%
    16:00 +4°C° 0 mm 4 mps 747 mmHg 61%
    17:00 +4°C° 0 mm 4 mps 746 mmHg 64%
    18:00 +4°C° 0 mm 4 mps 746 mmHg 66%
    19:00 +3°C° 0 mm 4 mps 746 mmHg 68%
    20:00 +3°C° 0 mm 4 mps 746 mmHg 71%
    21:00 +3°C° 0 mm 4 mps 746 mmHg 72%
    22:00 +3°C° 0 mm 4 mps 745 mmHg 73%
    23:00 +2°C° 0 mm 5 mps 745 mmHg 74%

    20 February, Thursday

    Time Temperature Precipitation Wind Pressure Humidity
    00:00 +1°C° 0.2 mm 4 mps 745 mmHg 81%
    01:00 +1°C° 0.2 mm 4 mps 745 mmHg 88%
    02:00 +1°C° 0.2 mm 4 mps 745 mmHg 96%
    03:00 +1°C° 0.3 mm 5 mps 745 mmHg 94%
    04:00 +1°C° 0.3 mm 5 mps 746 mmHg 93%
    05:00 +1°C° 0.3 mm 5 mps 746 mmHg 91%
    06:00 0°C° 0 mm 4 mps 746 mmHg 90%
    07:00 0°C° 0 mm 4 mps 746 mmHg 90%
    08:00 -1°C° 0 mm 4 mps 747 mmHg 89%
    09:00 0°C° 0 mm 4 mps 747 mmHg 84%
    10:00 +1°C° 0 mm 5 mps 748 mmHg 80%
    11:00 +1°C° 0 mm 5 mps 748 mmHg 76%
    12:00 +1°C° 0 mm 5 mps 748 mmHg 77%
    13:00 +1°C° 0 mm 5 mps 749 mmHg 77%
    14:00 +1°C° 0 mm 5 mps 749 mmHg 78%
    15:00 +1°C° 0 mm 5 mps 749 mmHg 82%
    16:00 +1°C° 0 mm 4 mps 749 mmHg 86%
    17:00 0°C° 0 mm 4 mps 749 mmHg 89%
    18:00 0°C° 0.1 mm 4 mps 750 mmHg 91%
    19:00 +1°C° 0.1 mm 3 mps 750 mmHg 92%
    20:00 +1°C° 0.1 mm 3 mps 751 mmHg 93%
    21:00 +1°C° 0 mm 3 mps 751 mmHg 92%
    22:00 +1°C° 0 mm 3 mps 752 mmHg 90%
    23:00 +1°C° 0 mm 3 mps 752 mmHg 89%

    21 February, Friday

    Time Temperature Precipitation Wind Pressure Humidity
    00:00 +1°C° 0 mm 2 mps 752 mmHg 89%
    01:00 +1°C° 0 mm 2 mps 752 mmHg 90%
    02:00 +1°C° 0 mm 1 mps 752 mmHg 91%
    03:00 +1°C° 0 mm 1 mps 752 mmHg 90%
    04:00 +1°C° 0 mm 1 mps 752 mmHg 89%
    05:00 +1°C° 0 mm 1 mps 752 mmHg 89%
    06:00 -1°C° 0 mm 2 mps 752 mmHg 89%
    07:00 -1°C° 0 mm 2 mps 752 mmHg 89%
    08:00 -1°C° 0 mm 2 mps 752 mmHg 89%
    15:00 +3°C° 0 mm 5 mps 750 mmHg 60%
    16:00 +4°C° 0 mm 4 mps 749 mmHg 62%
    17:00 +3°C° 0 mm 4 mps 749 mmHg 63%
    18:00 +3°C° 0.2 mm 4 mps 749 mmHg 74%
    19:00 +1°C° 0.2 mm 4 mps 750 mmHg 85%
    20:00 0°C° 0.2 mm 4 mps 750 mmHg 96%
    21:00 +1°C° 0.2 mm 4 mps 750 mmHg 94%
    22:00 +1°C° 0.2 mm 5 mps 751 mmHg 93%
    23:00 +1°C° 0.2 mm 5 mps 751 mmHg 91%

    22 February, Saturday

    Time Temperature Precipitation Wind Pressure Humidity
    00:00 +1°C° 0 mm 5 mps 752 mmHg 89%
    01:00 0°C° 0 mm 5 mps 752 mmHg 87%
    02:00 0°C° 0 mm 4 mps 752 mmHg 86%
    03:00 0°C° 0 mm 4 mps 752 mmHg 86%
    04:00 -1°C° 0 mm 4 mps 752 mmHg 87%
    05:00 -1°C° 0 mm 4 mps 753 mmHg 87%
    06:00 -2°C° 0 mm 4 mps 753 mmHg 88%
    07:00 -2°C° 0 mm 4 mps 753 mmHg 89%
    08:00 -2°C° 0 mm 4 mps 753 mmHg 90%
    09:00 -1°C° 0 mm 5 mps 752 mmHg 82%
    10:00 +1°C° 0 mm 6 mps 752 mmHg 75%
    11:00 +2°C° 0 mm 7 mps 752 mmHg 68%
    12:00 +2°C° 0 mm 7 mps 751 mmHg 66%
    13:00 +3°C° 0 mm 7 mps 750 mmHg 63%
    14:00 +2°C° 0 mm 8 mps 750 mmHg 61%
    15:00 +1°C° 0 mm 8 mps 749 mmHg 71%
    16:00 +1°C° 0 mm 8 mps 748 mmHg 81%
    17:00 0°C° 0 mm 9 mps 747 mmHg 90%
    18:00 0°C° 0.1 mm 9 mps 746 mmHg 89%
    19:00 +1°C° 0.1 mm 9 mps 746 mmHg 87%
    20:00 +1°C° 0.1 mm 9 mps 745 mmHg 85%
    21:00 +2°C° 0.1 mm 9 mps 745 mmHg 85%
    22:00 +2°C° 0.1 mm 9 mps 744 mmHg 86%
    23:00 +2°C° 0.1 mm 9 mps 743 mmHg 86%
    Show more